• In Belgium
  • List of Countries
  • For 7 days
  • Water Temperature
  • Satellite Maps
  • Weather Map
  • Weather Widgets
  • user-avatar
    Login

    Hourly Weather Novoe-Hamidie

    Today, 19 October, Friday

    Time Temperature Precipitation Wind Pressure Humidity
    00:00 +14°C° 0 mm 2 mps 742 mmHg 91%
    01:00 +14°C° 0 mm 2 mps 742 mmHg 92%
    02:00 +14°C° 0 mm 2 mps 742 mmHg 92%
    03:00 +14°C° 0 mm 2 mps 742 mmHg 93%
    04:00 +14°C° 0 mm 2 mps 742 mmHg 92%
    05:00 +14°C° 0 mm 2 mps 742 mmHg 92%
    06:00 +14°C° 0 mm 2 mps 742 mmHg 91%
    07:00 +15°C° 0 mm 2 mps 742 mmHg 88%
    08:00 +15°C° 0 mm 2 mps 742 mmHg 85%
    09:00 +16°C° 0 mm 2 mps 742 mmHg 82%
    10:00 +17°C° 0 mm 2 mps 741 mmHg 76%
    11:00 +19°C° 0 mm 3 mps 741 mmHg 70%
    12:00 +20°C° 0 mm 3 mps 741 mmHg 65%
    13:00 +21°C° 0 mm 3 mps 741 mmHg 61%
    14:00 +21°C° 0 mm 3 mps 741 mmHg 57%
    15:00 +22°C° 0 mm 3 mps 741 mmHg 53%
    16:00 +21°C° 0 mm 3 mps 741 mmHg 60%
    17:00 +19°C° 0 mm 2 mps 741 mmHg 66%
    18:00 +18°C° 0 mm 2 mps 741 mmHg 73%
    19:00 +17°C° 0 mm 2 mps 741 mmHg 78%
    20:00 +16°C° 0 mm 2 mps 741 mmHg 82%
    21:00 +16°C° 0 mm 2 mps 741 mmHg 87%
    22:00 +15°C° 0 mm 2 mps 740 mmHg 87%
    23:00 +15°C° 0 mm 2 mps 740 mmHg 88%

    Tomorrow, 20 October, Saturday

    Time Temperature Precipitation Wind Pressure Humidity
    00:00 +15°C° 0 mm 1 mps 740 mmHg 89%
    01:00 +15°C° 0 mm 1 mps 740 mmHg 88%
    02:00 +15°C° 0 mm 1 mps 740 mmHg 87%
    03:00 +15°C° 0 mm 1 mps 740 mmHg 86%
    04:00 +15°C° 0 mm 1 mps 740 mmHg 86%
    05:00 +15°C° 0 mm 1 mps 740 mmHg 85%
    06:00 +15°C° 0 mm 1 mps 740 mmHg 84%
    07:00 +16°C° 0 mm 1 mps 740 mmHg 80%
    08:00 +16°C° 0 mm 0 mps 740 mmHg 75%
    09:00 +17°C° 0 mm 0 mps 740 mmHg 71%
    10:00 +20°C° 0 mm 1 mps 739 mmHg 64%
    11:00 +22°C° 0 mm 1 mps 739 mmHg 57%
    12:00 +23°C° 0 mm 1 mps 739 mmHg 50%
    13:00 +24°C° 0 mm 1 mps 739 mmHg 48%
    14:00 +24°C° 0 mm 2 mps 739 mmHg 46%
    15:00 +25°C° 0 mm 2 mps 739 mmHg 44%
    16:00 +23°C° 0 mm 1 mps 739 mmHg 50%
    17:00 +21°C° 0 mm 1 mps 739 mmHg 56%
    18:00 +20°C° 0 mm 1 mps 739 mmHg 62%
    19:00 +19°C° 0 mm 1 mps 739 mmHg 64%
    20:00 +16°C° 0 mm 0 mps 739 mmHg 66%
    21:00 +16°C° 0 mm 0 mps 739 mmHg 68%
    22:00 +16°C° 0 mm 0 mps 739 mmHg 69%
    23:00 +15°C° 0 mm 0 mps 739 mmHg 69%

    Day after tomorrow, 21 October, Sunday

    Time Temperature Precipitation Wind Pressure Humidity
    00:00 +15°C° 0 mm 0 mps 738 mmHg 70%
    01:00 +15°C° 0 mm 0 mps 738 mmHg 71%
    02:00 +14°C° 0 mm 0 mps 738 mmHg 71%
    03:00 +14°C° 0 mm 0 mps 738 mmHg 72%
    04:00 +14°C° 0 mm 0 mps 738 mmHg 73%
    05:00 +14°C° 0 mm 0 mps 738 mmHg 73%
    06:00 +13°C° 0 mm 0 mps 738 mmHg 74%
    07:00 +15°C° 0 mm 0 mps 738 mmHg 69%
    08:00 +18°C° 0 mm 1 mps 738 mmHg 63%
    09:00 +20°C° 0 mm 1 mps 738 mmHg 58%
    10:00 +21°C° 0 mm 1 mps 738 mmHg 53%
    11:00 +21°C° 0 mm 2 mps 738 mmHg 49%
    12:00 +24°C° 0 mm 2 mps 738 mmHg 44%
    13:00 +24°C° 0 mm 3 mps 738 mmHg 43%
    14:00 +24°C° 0 mm 3 mps 737 mmHg 43%
    15:00 +24°C° 0 mm 3 mps 737 mmHg 42%
    16:00 +22°C° 0 mm 3 mps 737 mmHg 48%
    17:00 +20°C° 0 mm 2 mps 738 mmHg 53%
    18:00 +19°C° 0 mm 2 mps 738 mmHg 59%
    19:00 +18°C° 0 mm 2 mps 738 mmHg 62%
    20:00 +18°C° 0 mm 2 mps 738 mmHg 66%
    21:00 +17°C° 0 mm 2 mps 738 mmHg 70%
    22:00 +16°C° 0 mm 2 mps 738 mmHg 75%
    23:00 +16°C° 0 mm 2 mps 737 mmHg 80%

    22 October, Monday

    Time Temperature Precipitation Wind Pressure Humidity
    00:00 +15°C° 0 mm 2 mps 737 mmHg 85%
    01:00 +15°C° 0 mm 1 mps 737 mmHg 88%
    02:00 +15°C° 0 mm 1 mps 737 mmHg 90%
    03:00 +14°C° 0 mm 1 mps 737 mmHg 92%
    04:00 +15°C° 0 mm 1 mps 737 mmHg 92%
    05:00 +15°C° 0 mm 1 mps 737 mmHg 91%
    06:00 +15°C° 0 mm 1 mps 737 mmHg 91%
    07:00 +15°C° 0 mm 1 mps 737 mmHg 88%
    08:00 +16°C° 0 mm 1 mps 737 mmHg 86%
    09:00 +16°C° 0 mm 1 mps 737 mmHg 84%
    10:00 +18°C° 0 mm 1 mps 737 mmHg 80%
    11:00 +18°C° 0 mm 2 mps 737 mmHg 77%
    12:00 +18°C° 0 mm 2 mps 737 mmHg 73%
    13:00 +19°C° 0 mm 2 mps 737 mmHg 70%
    14:00 +19°C° 0 mm 2 mps 737 mmHg 67%
    15:00 +20°C° 0 mm 2 mps 737 mmHg 65%
    16:00 +19°C° 0 mm 2 mps 738 mmHg 70%
    17:00 +18°C° 0 mm 2 mps 738 mmHg 75%
    18:00 +17°C° 0 mm 2 mps 738 mmHg 79%
    19:00 +16°C° 0 mm 1 mps 739 mmHg 82%
    20:00 +16°C° 0 mm 1 mps 739 mmHg 85%
    21:00 +15°C° 0 mm 1 mps 739 mmHg 88%
    22:00 +15°C° 0 mm 1 mps 739 mmHg 88%
    23:00 +15°C° 0 mm 1 mps 738 mmHg 89%

    23 October, Tuesday

    Time Temperature Precipitation Wind Pressure Humidity
    00:00 +15°C° 0 mm 1 mps 738 mmHg 89%
    01:00 +15°C° 0 mm 1 mps 738 mmHg 89%
    02:00 +15°C° 0 mm 1 mps 738 mmHg 89%
    03:00 +15°C° 0 mm 1 mps 738 mmHg 89%
    04:00 +13°C° 0 mm 0 mps 738 mmHg 89%
    05:00 +13°C° 0 mm 0 mps 738 mmHg 89%
    06:00 +13°C° 0 mm 0 mps 738 mmHg 88%
    07:00 +15°C° 0 mm 1 mps 738 mmHg 84%
    08:00 +16°C° 0 mm 1 mps 738 mmHg 80%
    09:00 +18°C° 0 mm 1 mps 738 mmHg 76%
    10:00 +19°C° 0 mm 1 mps 738 mmHg 71%
    11:00 +20°C° 0 mm 2 mps 738 mmHg 65%
    12:00 +21°C° 0 mm 2 mps 738 mmHg 59%
    13:00 +22°C° 0 mm 3 mps 737 mmHg 57%
    14:00 +22°C° 0 mm 3 mps 737 mmHg 54%
    15:00 +23°C° 0 mm 4 mps 737 mmHg 52%
    16:00 +21°C° 0 mm 3 mps 737 mmHg 56%
    17:00 +20°C° 0 mm 2 mps 737 mmHg 59%
    18:00 +19°C° 0 mm 2 mps 737 mmHg 62%
    19:00 +18°C° 0 mm 2 mps 737 mmHg 62%
    20:00 +19°C° 0 mm 1 mps 737 mmHg 62%
    21:00 +19°C° 0 mm 1 mps 738 mmHg 62%
    22:00 +18°C° 0 mm 1 mps 737 mmHg 64%
    23:00 +16°C° 0 mm 1 mps 737 mmHg 65%

    24 October, Wednesday

    Time Temperature Precipitation Wind Pressure Humidity
    00:00 +16°C° 0 mm 1 mps 737 mmHg 67%
    01:00 +15°C° 0 mm 1 mps 737 mmHg 68%
    02:00 +15°C° 0 mm 1 mps 737 mmHg 69%
    03:00 +15°C° 0 mm 1 mps 737 mmHg 70%
    04:00 +15°C° 0 mm 1 mps 737 mmHg 71%
    05:00 +14°C° 0 mm 1 mps 737 mmHg 72%
    06:00 +14°C° 0 mm 1 mps 737 mmHg 73%
    07:00 +15°C° 0 mm 1 mps 737 mmHg 69%
    08:00 +18°C° 0 mm 1 mps 736 mmHg 65%
    09:00 +19°C° 0 mm 1 mps 736 mmHg 61%
    10:00 +20°C° 0 mm 1 mps 736 mmHg 57%
    11:00 +21°C° 0 mm 1 mps 735 mmHg 52%
    12:00 +23°C° 0 mm 2 mps 735 mmHg 48%
    13:00 +23°C° 0 mm 2 mps 734 mmHg 46%
    14:00 +24°C° 0 mm 3 mps 734 mmHg 44%
    15:00 +24°C° 0 mm 3 mps 733 mmHg 42%
    16:00 +21°C° 0 mm 3 mps 733 mmHg 47%
    17:00 +20°C° 0 mm 3 mps 733 mmHg 52%
    18:00 +18°C° 0 mm 2 mps 732 mmHg 57%
    19:00 +18°C° 0 mm 2 mps 732 mmHg 59%
    20:00 +17°C° 0 mm 2 mps 731 mmHg 60%
    21:00 +18°C° 0 mm 1 mps 731 mmHg 62%
    22:00 +16°C° 0 mm 1 mps 730 mmHg 63%
    23:00 +16°C° 0 mm 1 mps 730 mmHg 63%
    Show more